Tracking 25648 objects as of 16-May-2022
HD Live streaming from Space Station
objects crossing your sky now

FREGAT DEB

Track FREGAT DEB now!
10-day predictions


NORAD ID: 48835
Int'l Code: 2011-037NZ
Perigee: 289.6 km
Apogee: 1,968.4 km
Inclination: 51.5 °
Period: 107.7 minutes
Semi major axis: 7499 km
RCS: Unknown
Launch date: July 18, 2011
Source: Commonwealth of Independent States (former USSR) (CIS)
Launch site: TYURATAM MISSILE AND SPACE COMPLEX (TTMTR)

Note: This is SATELLITE DEBRIS
aabbcc
Your satellite tracking list
Your tracking list is empty




NASA's NSSDC Master Catalog

Two Line Element Set (TLE):
1 48835U 11037NZ  22136.01645113  .00130883  84842-5  28128-2 0  9992
2 48835  51.5135 139.5387 1119206  66.6122 304.8418 13.36631535 53494
Source of the keplerian elements: AFSPC